Location: *
(32.8140°S, 174.6161°E)
Time: 13:31:43
(UTC+00:00)

Cosmos 1980 Rocket - Pass Details

Date: 10 December 2019
Orbit: 829 x 850 km, 71.0° (Epoch: 22 January)

Event Time Altitude Azimuth Distance (km) Brightness Sun altitude
Exits shadow 12:58:36 24° 101° (ESE) 1,673 3.9 -33.3°
Drops below altitude 10° 13:01:50 10° 133° (SE) 2,458 5.2 -33.1°
Sets 13:04:37 0° 145° (SE) 3,399 6.3 -33.0°
